DLH303 EDDM-EGKK

Flight info

Callsign DLH303
Flight time N/A
Altitude 38000
Route OLAS2Q OLASO Z714 PELOG UM164 LUPEN POGOL LUVAL ROTSI KOTUN NINAL KESAX KUNAV KUNA1G
Aircraft A320/M-V/N

Departure

Time 2026-05-01 14:24
Airport Munich Airport (EDDM)

Arrival

Time N/A
Airport London Gatwick Airport (EGKK)
Time Latitude Longitude Altitude Speed Heading
2026-05-01 13:50 48.35321 11.79782 1475 ft 0 kts 83°
2026-05-01 14:05 48.35321 11.79780 1475 ft 1 kts 82°
2026-05-01 14:05 48.35320 11.79768 1466 ft 1 kts 88°
2026-05-01 14:06 48.35320 11.79757 1469 ft 1 kts 94°
2026-05-01 14:06 48.35321 11.79745 1473 ft 1 kts 100°
2026-05-01 14:06 48.35322 11.79734 1471 ft 1 kts 106°
2026-05-01 14:06 48.35324 11.79722 1472 ft 1 kts 111°
2026-05-01 14:07 48.35328 11.79708 1469 ft 2 kts 118°
2026-05-01 14:07 48.35334 11.79694 1469 ft 2 kts 124°
2026-05-01 14:07 48.35340 11.79680 1467 ft 2 kts 130°
2026-05-01 14:08 48.35359 11.79652 1462 ft 2 kts 143°
2026-05-01 14:08 48.35371 11.79640 1468 ft 2 kts 149°
2026-05-01 14:08 48.35383 11.79629 1462 ft 2 kts 155°
2026-05-01 14:08 48.35400 11.79618 1471 ft 3 kts 161°
2026-05-01 14:09 48.35416 11.79611 1463 ft 0 kts 167°
2026-05-01 14:11 48.35387 11.79619 1466 ft 9 kts 171°
2026-05-01 14:12 48.35311 11.79598 1472 ft 13 kts 197°
2026-05-01 14:12 48.35208 11.79565 1477 ft 17 kts 173°
2026-05-01 14:12 48.35110 11.79583 1478 ft 0 kts 172°
2026-05-01 14:12 48.35107 11.79584 1478 ft 1 kts 172°
2026-05-01 14:13 48.35096 11.79581 1478 ft 3 kts 190°
2026-05-01 14:13 48.35081 11.79570 1476 ft 4 kts 207°
2026-05-01 14:13 48.35016 11.79531 1474 ft 11 kts 188°
2026-05-01 14:13 48.34936 11.79545 1479 ft 8 kts 172°
2026-05-01 14:14 48.34934 11.79545 1479 ft 0 kts 172°
2026-05-01 14:14 48.34931 11.79546 1479 ft 2 kts 172°
2026-05-01 14:14 48.34884 11.79554 1478 ft 10 kts 173°
2026-05-01 14:15 48.34862 11.79558 1473 ft 3 kts 173°
2026-05-01 14:15 48.34853 11.79560 1474 ft 0 kts 173°
2026-05-01 14:15 48.34841 11.79562 1478 ft 3 kts 172°
2026-05-01 14:15 48.34809 11.79582 1474 ft 7 kts 144°
2026-05-01 14:16 48.34800 11.79701 1472 ft 17 kts 82°
2026-05-01 14:16 48.34818 11.79925 1479 ft 26 kts 83°
2026-05-01 14:16 48.34817 11.80153 1470 ft 12 kts 125°
2026-05-01 14:16 48.34751 11.80242 1476 ft 6 kts 162°
2026-05-01 14:17 48.34735 11.80244 1471 ft 0 kts 177°
2026-05-01 14:17 48.34732 11.80245 1472 ft 2 kts 177°
2026-05-01 14:17 48.34683 11.80252 1475 ft 13 kts 171°
2026-05-01 14:18 48.34571 11.80268 1474 ft 10 kts 172°
2026-05-01 14:18 48.34554 11.80271 1476 ft 3 kts 172°
2026-05-01 14:18 48.34527 11.80271 1481 ft 5 kts 180°
2026-05-01 14:18 48.34502 11.80270 1477 ft 6 kts 180°
2026-05-01 14:19 48.34493 11.80351 1480 ft 10 kts 56°
2026-05-01 14:19 48.34568 11.80413 1470 ft 15 kts 10°
2026-05-01 14:19 48.34706 11.80398 1473 ft 25 kts 354°
2026-05-01 14:19 48.34849 11.80249 1474 ft 31 kts 269°
2026-05-01 14:20 48.34816 11.79897 1479 ft 38 kts 263°
2026-05-01 14:20 48.34747 11.78996 1479 ft 48 kts 263°
2026-05-01 14:20 48.34707 11.78487 1478 ft 50 kts 261°
2026-05-01 14:21 48.34665 11.77952 1474 ft 52 kts 264°
2026-05-01 14:21 48.34624 11.77409 1482 ft 52 kts 262°
2026-05-01 14:21 48.34577 11.76880 1488 ft 51 kts 267°
2026-05-01 14:22 48.34505 11.75827 1481 ft 50 kts 263°
2026-05-01 14:22 48.34472 11.75416 1492 ft 34 kts 263°
2026-05-01 14:22 48.34408 11.75201 1491 ft 15 kts 193°
2026-05-01 14:22 48.34329 11.75224 1485 ft 14 kts 169°
2026-05-01 14:23 48.34175 11.75258 1494 ft 30 kts 171°
2026-05-01 14:23 48.34101 11.75551 1494 ft 58 kts 83°
2026-05-01 14:23 48.34147 11.76573 1478 ft 133 kts 88°
2026-05-01 14:23 48.34292 11.78232 1479 ft 187 kts 83°
2026-05-01 14:24 48.34459 11.80287 2089 ft 200 kts 84°
2026-05-01 14:24 48.34623 11.82372 3110 ft 200 kts 84°
2026-05-01 14:24 48.34784 11.84435 4041 ft 198 kts 84°
2026-05-01 14:24 48.34935 11.86507 4669 ft 205 kts 84°
2026-05-01 14:25 48.35108 11.88665 5339 ft 209 kts 84°
2026-05-01 14:25 48.35293 11.90844 6018 ft 210 kts 84°
2026-05-01 14:25 48.35466 11.93028 6700 ft 210 kts 85°
2026-05-01 14:25 48.35598 11.95255 7161 ft 220 kts 90°
2026-05-01 14:26 48.35436 11.97562 7640 ft 223 kts 104°
2026-05-01 14:26 48.33494 12.01523 7659 ft 274 kts 146°
2026-05-01 14:26 48.31594 12.02558 7371 ft 305 kts 168°
2026-05-01 14:27 48.29448 12.02879 7344 ft 305 kts 176°
2026-05-01 14:27 48.27446 12.02761 7344 ft 273 kts 181°
2026-05-01 14:27 48.25550 12.02589 7354 ft 276 kts 180°
2026-05-01 14:28 48.21729 12.02323 7331 ft 277 kts 179°
2026-05-01 14:28 48.19809 12.02210 7339 ft 275 kts 179°
2026-05-01 14:28 48.17889 12.02098 7346 ft 275 kts 179°
2026-05-01 14:28 48.15964 12.01986 7350 ft 277 kts 179°
2026-05-01 14:29 48.14040 12.01874 7519 ft 281 kts 180°
2026-05-01 14:29 48.12082 12.01758 8065 ft 281 kts 179°
2026-05-01 14:30 48.06733 11.98496 10183 ft 303 kts 237°
2026-05-01 14:30 48.05920 11.95619 11013 ft 308 kts 255°
2026-05-01 14:30 48.05408 11.92481 11854 ft 312 kts 258°
2026-05-01 14:31 48.04476 11.86030 13567 ft 321 kts 258°
2026-05-01 14:31 48.03969 11.82798 14352 ft 326 kts 258°
2026-05-01 14:31 48.03424 11.79469 15094 ft 330 kts 257°
2026-05-01 14:31 48.02862 11.76127 15831 ft 333 kts 257°
2026-05-01 14:32 48.02286 11.72739 16563 ft 337 kts 257°
2026-05-01 14:32 48.01901 11.70481 17083 ft 339 kts 257°
2026-05-01 14:32 48.01208 11.65878 18031 ft 344 kts 264°
2026-05-01 14:32 48.01022 11.62295 18715 ft 347 kts 268°
2026-05-01 14:33 48.00919 11.59898 19136 ft 349 kts 268°
2026-05-01 14:33 48.00702 11.55089 20001 ft 352 kts 268°
2026-05-01 14:33 48.00532 11.51419 20625 ft 355 kts 268°
2026-05-01 14:33 48.00414 11.48929 21071 ft 356 kts 268°
2026-05-01 14:34 48.00240 11.45268 21699 ft 359 kts 268°
2026-05-01 14:34 48.00062 11.41529 22315 ft 362 kts 268°
2026-05-01 14:34 47.99881 11.37764 22926 ft 365 kts 268°
2026-05-01 14:34 47.99697 11.33964 23537 ft 367 kts 268°
2026-05-01 14:35 47.99511 11.30143 24094 ft 370 kts 268°
2026-05-01 14:35 47.99326 11.26341 24582 ft 372 kts 268°
2026-05-01 14:35 47.99136 11.22473 25075 ft 375 kts 268°
2026-05-01 14:35 47.98944 11.18573 25569 ft 377 kts 268°
2026-05-01 14:36 47.98749 11.14653 26041 ft 379 kts 268°
2026-05-01 14:36 47.98551 11.10718 26498 ft 382 kts 268°
2026-05-01 14:36 47.98442 11.06750 26963 ft 382 kts 276°
2026-05-01 14:36 47.98806 11.02834 27395 ft 380 kts 287°
2026-05-01 14:37 47.99648 10.99147 27815 ft 379 kts 296°
2026-05-01 14:37 48.00706 10.95477 27991 ft 389 kts 296°
2026-05-01 14:37 48.01783 10.91699 28103 ft 400 kts 296°
2026-05-01 14:37 48.02886 10.87801 28209 ft 411 kts 295°
2026-05-01 14:38 48.04009 10.83812 28317 ft 421 kts 295°
2026-05-01 14:38 48.06314 10.75602 28550 ft 439 kts 295°
2026-05-01 14:38 48.07500 10.71362 28888 ft 442 kts 295°
2026-05-01 14:39 48.08580 10.67496 29222 ft 444 kts 295°
2026-05-01 14:39 48.09773 10.63220 29589 ft 445 kts 295°
2026-05-01 14:39 48.10954 10.58980 29914 ft 448 kts 295°
2026-05-01 14:39 48.12154 10.54666 30242 ft 450 kts 295°
2026-05-01 14:40 48.13357 10.50332 30544 ft 452 kts 295°
2026-05-01 14:40 48.14570 10.45956 30848 ft 454 kts 295°
2026-05-01 14:40 48.15783 10.41573 31138 ft 456 kts 295°
2026-05-01 14:40 48.16985 10.37220 31448 ft 457 kts 294°
2026-05-01 14:41 48.18201 10.32809 31840 ft 456 kts 294°
2026-05-01 14:41 48.19382 10.28397 32227 ft 456 kts 291°
2026-05-01 14:41 48.20289 10.23837 32632 ft 457 kts 285°
2026-05-01 14:41 48.20864 10.19138 33028 ft 457 kts 279°
2026-05-01 14:42 48.21107 10.14364 33411 ft 458 kts 274°
2026-05-01 14:42 48.21241 10.09608 33794 ft 456 kts 275°
2026-05-01 14:42 48.21389 10.04860 34173 ft 455 kts 275°
2026-05-01 14:42 48.21535 10.00170 34514 ft 454 kts 275°
2026-05-01 14:43 48.21679 9.95445 34836 ft 453 kts 274°
2026-05-01 14:43 48.21818 9.90738 35167 ft 451 kts 274°
2026-05-01 14:43 48.21986 9.86029 35474 ft 450 kts 275°
2026-05-01 14:43 48.22192 9.81347 35769 ft 449 kts 276°
2026-05-01 14:44 48.22401 9.76724 36057 ft 448 kts 276°
2026-05-01 14:44 48.22857 9.67401 36613 ft 445 kts 279°
2026-05-01 14:44 48.23389 9.62846 36868 ft 443 kts 283°
2026-05-01 14:45 48.23967 9.58371 37129 ft 442 kts 283°
2026-05-01 14:45 48.25112 9.49312 37616 ft 440 kts 282°
2026-05-01 14:45 48.25678 9.44791 37856 ft 440 kts 282°
2026-05-01 14:46 48.26201 9.40262 38073 ft 439 kts 281°
2026-05-01 14:46 48.27177 9.31277 38285 ft 437 kts 281°
2026-05-01 14:46 48.27666 9.26781 38285 ft 436 kts 281°
2026-05-01 14:47 48.28648 9.17795 38280 ft 435 kts 281°
2026-05-01 14:48 48.30117 9.04312 38281 ft 435 kts 281°
2026-05-01 14:48 48.31562 8.90889 38277 ft 435 kts 280°
2026-05-01 14:49 48.33465 8.72970 38275 ft 435 kts 280°
2026-05-01 14:50 48.35346 8.54993 38269 ft 434 kts 280°
2026-05-01 14:51 48.36732 8.41550 38269 ft 435 kts 279°
2026-05-01 14:52 48.38109 8.28041 38254 ft 435 kts 279°
2026-05-01 14:53 48.39466 8.14572 38251 ft 434 kts 279°
2026-05-01 14:53 48.40364 8.05556 38242 ft 435 kts 279°
2026-05-01 14:54 48.41250 7.96590 38236 ft 435 kts 279°
2026-05-01 14:54 48.42136 7.87549 38237 ft 436 kts 278°
2026-05-01 14:55 48.43012 7.78540 38238 ft 437 kts 278°
2026-05-01 14:55 48.43386 7.69394 38239 ft 437 kts 269°
2026-05-01 14:56 48.43095 7.60288 38240 ft 438 kts 268°
2026-05-01 14:56 48.42814 7.51106 38240 ft 438 kts 267°
2026-05-01 14:57 48.42522 7.41918 38248 ft 439 kts 267°
2026-05-01 14:57 48.42063 7.28187 38252 ft 439 kts 267°
2026-05-01 14:58 48.41749 7.19055 38260 ft 440 kts 266°
2026-05-01 14:58 48.41426 7.09902 38259 ft 440 kts 266°
2026-05-01 14:59 48.41094 7.00674 38256 ft 440 kts 266°
2026-05-01 14:59 48.40757 6.91522 38254 ft 441 kts 266°
2026-05-01 15:00 48.40232 6.77674 38249 ft 441 kts 266°
2026-05-01 15:01 48.39873 6.68440 38250 ft 441 kts 266°
2026-05-01 15:01 48.39333 6.59272 38249 ft 441 kts 263°
2026-05-01 15:02 48.38719 6.50081 38245 ft 441 kts 263°
2026-05-01 15:02 48.38128 6.40942 38242 ft 441 kts 263°
2026-05-01 15:03 48.37535 6.31746 38241 ft 441 kts 263°
2026-05-01 15:03 48.37138 6.25647 38241 ft 441 kts 263°
2026-05-01 15:04 48.36670 6.18520 38238 ft 441 kts 263°
2026-05-01 15:04 48.36061 6.09338 38238 ft 441 kts 263°
2026-05-01 15:05 48.35444 6.00148 38243 ft 441 kts 263°
2026-05-01 15:05 48.34824 5.91027 38243 ft 441 kts 263°
2026-05-01 15:06 48.34191 5.81829 38242 ft 441 kts 262°
2026-05-01 15:06 48.33557 5.72718 38240 ft 440 kts 262°
2026-05-01 15:07 48.32910 5.63543 38237 ft 440 kts 262°
2026-05-01 15:07 48.32262 5.54442 38235 ft 440 kts 262°
2026-05-01 15:08 48.31603 5.45296 38233 ft 439 kts 262°
2026-05-01 15:08 48.30940 5.36203 38230 ft 439 kts 262°
2026-05-01 15:09 48.30269 5.27084 38227 ft 438 kts 262°
2026-05-01 15:09 48.29591 5.17974 38221 ft 438 kts 262°
2026-05-01 15:10 48.29071 5.08896 38220 ft 438 kts 266°
2026-05-01 15:10 48.28738 4.95175 38214 ft 438 kts 265°
2026-05-01 15:11 48.28303 4.81464 38216 ft 437 kts 265°
2026-05-01 15:12 48.28048 4.72391 38212 ft 438 kts 270°
2026-05-01 15:12 48.29241 4.63405 38201 ft 443 kts 290°
2026-05-01 15:12 48.30597 4.59218 38197 ft 445 kts 300°
2026-05-01 15:14 48.40694 4.41476 38202 ft 452 kts 310°
2026-05-01 15:14 48.46956 4.30845 38199 ft 452 kts 309°
2026-05-01 15:15 48.55305 4.16607 38213 ft 452 kts 309°
2026-05-01 15:16 48.63623 4.02345 38214 ft 453 kts 309°
2026-05-01 15:18 48.74148 3.84586 38218 ft 455 kts 314°
2026-05-01 15:19 48.83214 3.71121 38214 ft 456 kts 314°
2026-05-01 15:19 48.89965 3.61027 38213 ft 456 kts 314°
2026-05-01 15:20 48.96750 3.50845 38208 ft 456 kts 314°
2026-05-01 15:21 49.01271 3.44035 38207 ft 456 kts 314°
2026-05-01 15:21 49.05753 3.37267 38208 ft 456 kts 314°
2026-05-01 15:22 49.12516 3.27020 38197 ft 456 kts 313°
2026-05-01 15:22 49.16262 3.21327 38190 ft 456 kts 313°
2026-05-01 15:23 49.20743 3.14499 38203 ft 456 kts 313°
2026-05-01 15:23 49.25251 3.07612 38185 ft 457 kts 313°
2026-05-01 15:24 49.29752 3.00716 38185 ft 457 kts 313°
2026-05-01 15:24 49.34224 2.93846 38194 ft 457 kts 313°
2026-05-01 15:25 49.38719 2.86922 38180 ft 457 kts 313°
2026-05-01 15:25 49.43193 2.80011 38189 ft 457 kts 313°
2026-05-01 15:26 49.47687 2.73051 38187 ft 457 kts 313°
2026-05-01 15:26 49.52152 2.66117 38184 ft 458 kts 313°
2026-05-01 15:27 49.56637 2.59132 38181 ft 458 kts 313°
2026-05-01 15:28 49.63094 2.48357 38188 ft 457 kts 308°
2026-05-01 15:28 49.67222 2.40875 38186 ft 457 kts 309°
2026-05-01 15:29 49.73380 2.29691 38187 ft 457 kts 308°
2026-05-01 15:30 49.80909 2.15909 38189 ft 457 kts 308°
2026-05-01 15:31 49.93709 1.92335 38165 ft 456 kts 308°
2026-05-01 15:32 49.97787 1.84772 37139 ft 459 kts 308°
2026-05-01 15:32 50.01965 1.76970 34912 ft 480 kts 308°
2026-05-01 15:33 50.08817 1.65040 31154 ft 499 kts 319°
2026-05-01 15:34 50.16411 1.54785 29388 ft 470 kts 317°